Location: Newark
(52.3500°N, 175.9667°E)
Time: 21:27:54
(UTC+00:00)

Altair - Pass Details

Date: 23 April 2021
Orbit: 1501 x 1683 km, 47.2° (Epoch: 05 May)

Event Time Altitude Azimuth Distance (km) Brightness Sun altitude
Rises 00:09:55 0° 286° (WNW) 4,757 10.0 50.2°
Reaches altitude 10° 00:13:48 10° 273° (W) 3,741 9.6 50.2°
Maximum altitude 00:20:38 23° 226° (SW) 2,794 9.7 50.2°
Drops below altitude 10° 00:27:19 10° 178° (S) 3,655 10.4 50.1°
Sets 00:31:06 0° 165° (SSE) 4,624 10.6 50.1°
